Погода в Брянске

Россия / Республика Дагестан     44°19′48″N   46°59′01″E
темп.,
°C
ветер,
м/с
пор.,
м/с
влажн.,
%
обл.,
%
осадки,
мм/ч
давл.,
гПа
погр.,
м
25 июня, сб
сб2500:00+20юв3469100 0.0 100981
03:00+18ююв227540 0.0 100943
06:00+23вюв2559100 0.0 1010325
09:00+26в5645100 0.0 10101030
12:00+28всв774411 0.0 10091422
15:00+28всв7848100 0.0 10081283
18:00+26всв5654100 0.0 1009755
21:00+22св2275100 0.0 100911
26 июня, вс
вс2600:00+20в1177100 0.0 100811
03:00+21сз3370100 0.0 100842
06:00+23сз3463100 0.0 1008143
09:00+28ссв344082 0.0 1008881
12:00+30св6739100 0.0 10071015
15:00+29св5643100 0.1 1006785
18:00+28св34588 0.1 1006601
21:00+23сз228275 0.1 100711
27 июня, пн
пн2700:00+23сз6972100 0.0 1007222
03:00+25с51075100 0.4 1007407
06:00+26всв7106716 0.0 1009972
09:00+27всв810565 0.0 10101048
12:00+28всв911550 0.0 10111084
15:00+27св911570 0.0 1011896
18:00+25ссв811576 0.0 1010617
21:00+24ссв712586 0.0 1011454
28 июня, вт
вт2800:00+24св6115783 0.0 1010378
03:00+24ссв7116496 0.0 1009416
06:00+25ссв71062100 0.0 1009658
09:00+27ссв77497 0.1 1009848
12:00+28ссв87450 0.0 10091027
15:00+28св78410 0.0 1009939
18:00+27всв47460 0.0 1010439
21:00+21сз226886 0.0 101112
29 июня, ср
ср2900:00+22сз4660100 0.3 1010114
03:00+23с456155 0.3 1010122
06:00+25с68665 0.0 1011819
09:00+27св886121 0.1 10121088
12:00+27всв86567 0.0 10131307
15:00+26св87608 0.0 10131019
18:00+23всв7864100 0.0 1013804
21:00+21в4766100 0.0 1014246